User: anonymous   Login
Location: Unspecified
(0.0000°N, 0.0000°E)
Time: 01:26:48
(UTC+00:00)
Language:

CHUBUSAT 3 - Orbit

View from above orbital plane
View from above orbital plane
View from above satellite
View from above satellite

Ground track
Ground track

The orbit data is extracted from the following two-line orbital elements,

1 41339U 16012C   17266.90133221  .00000456  00000-0  28941-4 0  9996
2 41339  31.0102 204.2816 0013725 322.3154  37.6529 15.00009517 87803
Epoch (UTC): 23 September 2017 21:37:55
Eccentricity: 0.0013725
inclination: 31.0102°
perigee height: 557 km
apogee height: 576 km
right ascension of ascending node: 204.2816°
argument of perigee: 322.3154°
revolutions per day: 15.00009517
mean anomaly at epoch: 37.6529°
orbit number at epoch: 8780

The dashed part of the orbit path shows where the satellite is in the earth's shadow,  

DLR